Weather in Perugia

Italy     43°06′17″N   12°21′23″E
temp.,
°C
wind,
m/s
gust,
m/s
humid.,
%
clouds,
%
prec.,
mm/h
press.,
hPa
HPBL,
m
9 march, tue
tue901:00+6ne1296100 2.3 101491
04:00+6ne2398100 7.1 1012179
07:00+6ene1298100 11.8 1012161
10:00+7ne3693100 2.9 1013488
13:00+7nne4888100 3.7 1013610
16:00+7ne5989100 0.4 1011676
19:00+5nne51093100 1.6 1011571
22:00+5nne4993100 2.1 1012577
10 march, wed
wed1001:00+5nne3793100 2.2 1012446
04:00+4n389089 0.0 1012328
07:00+2n249180 0.0 1014106
10:00+7nne597013 0.0 10161144
13:00+9ne796229 0.0 10171290
16:00+9ne69571 0.0 10171235
19:00+4n34690 0.0 101983
22:00+2n23730 0.0 102241
11 march, thu
thu1101:00+1n22740 0.0 102328
04:00+1n12770 0.0 102222
07:00+1nnw01780 0.0 102322
10:00+9ese01560 0.0 1024340
13:00+12wnw344918 0.0 10241325
16:00+13w235296 0.0 10221396
19:00+7sw237798 0.0 102367
22:00+5s2474100 0.0 1023101
12 march, fri
fri1201:00+5s3682100 0.0 1022207
04:00+7s31086100 0.0 1021469
07:00+6s31087100 0.0 1020415
10:00+11s61074100 0.0 1021802
13:00+11s5977100 0.0 1020790
16:00+11s41079100 0.1 1018998
19:00+9s41284100 0.1 1017659
22:00+8s31095100 0.0 1017368
13 march, sat
sat1301:00+9s31293100 0.4 1017607
04:00+8s2796100 1.9 1015382
07:00+8se2397100 8.3 1016100
10:00+10se228488 0.6 1018296
13:00+10se128294 0.8 1018242
16:00+13ese216724 0.0 1017673
19:00+8se118612 0.0 101722
22:00+7s119119 0.0 101722